| time (UTC) | temp F | wind direction | speed MPH | gust MPH | rain 1hr in | rain 24hr in | rain mn in | humidity % | barometer mb |
| 20260505051542 | 47 | 0.0 | 0.0 | 0.02 | 0.13 | 0.13 | 85 | 1012.5 | |
| 20260505041551 | 48 | 0.0 | 0.0 | 0.09 | 0.11 | 0.11 | 83 | 1012.9 | |
| 20260505040058 | 48 | 0.0 | 0.0 | 0.10 | 0.10 | 0.10 | 82 | 1013.3 | |
| 20260505034603 | 48 | 0.0 | 0.0 | 0.08 | 0.08 | 0.08 | 80 | 1013.1 | |
| 20260505033043 | 50 | 0.0 | 0.0 | 0.05 | 0.05 | 0.05 | 76 | 1013.0 | |
| 20260505031544 | 51 | 0.0 | 0.0 | 0.02 | 0.02 | 0.02 | 71 | 1012.7 | |
| 20260505030047 | 53 | 0.0 | 0.0 | 0.00 | 0.00 | 0.00 | 62 | 1012.3 | |
| 20260505024545 | 53 | 0.0 | 0.0 | 0.00 | 0.00 | 0.00 | 61 | 1011.8 | |
| 20260505023046 | 53 | 0.0 | 0.0 | 0.00 | 0.00 | 0.00 | 61 | 1011.6 | |
| 20260505021541 | 53 | 0.0 | 0.0 | 0.00 | 0.00 | 0.00 | 62 | 1011.4 | |
| 20260505020053 | 53 | 0.0 | 0.0 | 0.00 | 0.00 | 0.00 | 63 | 1011.4 | |
| 20260505014542 | 54 | 0.0 | 0.0 | 0.00 | 0.00 | 0.00 | 63 | 1011.4 | |
| 20260505013042 | 54 | 0.0 | 0.0 | 0.00 | 0.00 | 0.00 | 62 | 1011.0 | |
| 20260505011546 | 54 | 0.0 | 0.0 | 0.00 | 0.00 | 0.00 | 60 | 1011.3 | |
| 20260505010104 | 55 | 0.0 | 0.0 | 0.00 | 0.00 | 0.00 | 60 | 1010.9 | |
| 20260505004558 | 54 | 0.0 | 0.0 | 0.00 | 0.00 | 0.00 | 62 | 1011.2 | |
| 20260505003045 | 55 | 0.0 | 0.0 | 0.00 | 0.00 | 0.00 | 56 | 1011.3 | |
| 20260505001543 | 57 | 0.0 | 0.0 | 0.00 | 0.00 | 0.00 | 52 | 1011.1 | |
| 20260505000041 | 58 | 0.0 | 0.0 | 0.00 | 0.00 | 0.00 | 44 | 1010.6 | |
| 20260504234537 | 58 | 0.0 | 0.0 | 0.00 | 0.00 | 0.00 | 43 | 1010.1 | |
| 20260504233046 | 59 | 0.0 | 0.0 | 0.00 | 0.00 | 0.00 | 42 | 1009.7 | |
| 20260504231558 | 60 | 0.0 | 0.0 | 0.00 | 0.00 | 0.00 | 38 | 1009.4 | |
| 20260504230042 | 60 | 0.0 | 0.0 | 0.00 | 0.00 | 0.00 | 38 | 1009.3 | |
| 20260504224543 | 61 | 0.0 | 0.0 | 0.00 | 0.00 | 0.00 | 37 | 1009.1 | |
| 20260504223041 | 63 | 0.0 | 0.0 | 0.00 | 0.00 | 0.00 | 34 | 1009.3 | |
| 20260504221612 | 65 | 0.0 | 0.0 | 0.00 | 0.00 | 0.00 | 30 | 1009.3 | |
| 20260504220043 | 69 | 0.0 | 0.0 | 0.00 | 0.00 | 0.00 | 23 | 1008.7 | |
| 20260504214541 | 68 | 0.0 | 0.0 | 0.00 | 0.00 | 0.00 | 26 | 1008.6 | |
| 20260504213044 | 69 | 0.0 | 0.0 | 0.00 | 0.00 | 0.00 | 24 | 1008.8 | |
| 20260504211542 | 69 | 0.0 | 0.0 | 0.00 | 0.00 | 0.00 | 26 | 1009.0 | |
| 20260504210047 | 69 | 0.0 | 0.0 | 0.00 | 0.00 | 0.00 | 28 | 1009.2 | |
| 20260504204542 | 69 | 0.0 | 0.0 | 0.00 | 0.00 | 0.00 | 29 | 1009.1 | |
| 20260504203045 | 68 | 0.0 | 0.0 | 0.00 | 0.00 | 0.00 | 29 | 1009.7 | |
| 20260504201544 | 66 | 0.0 | 0.0 | 0.00 | 0.00 | 0.00 | 30 | 1009.9 | |
| 20260504200041 | 66 | 0.0 | 0.0 | 0.00 | 0.00 | 0.00 | 30 | 1009.9 | |
| 20260504194549 | 66 | 0.0 | 0.0 | 0.00 | 0.00 | 0.00 | 30 | 1009.9 | |
| 20260504193046 | 67 | 0.0 | 0.0 | 0.00 | 0.00 | 0.00 | 31 | 1009.9 | |
| 20260504191608 | 67 | 0.0 | 0.0 | 0.00 | 0.00 | 0.00 | 32 | 1009.6 | |
| 20260504190039 | 63 | 0.0 | 0.0 | 0.00 | 0.00 | 0.00 | 34 | 1009.8 | |
| 20260504184554 | 61 | 0.0 | 0.0 | 0.00 | 0.00 | 0.00 | 38 | 1009.9 | |
| 20260504183041 | 64 | 0.0 | 0.0 | 0.00 | 0.00 | 0.00 | 33 | 1010.4 | |
| 20260504181542 | 66 | 0.0 | 0.0 | 0.00 | 0.00 | 0.00 | 24 | 1010.0 | |
| 20260504180047 | 68 | 0.0 | 0.0 | 0.00 | 0.00 | 0.00 | 24 | 1009.4 | |
| 20260504174536 | 69 | 0.0 | 0.0 | 0.00 | 0.00 | 0.00 | 21 | 1009.5 | |
| 20260504173044 | 69 | 0.0 | 0.0 | 0.00 | 0.00 | 0.00 | 21 | 1009.5 | |
| 20260504171546 | 69 | 0.0 | 0.0 | 0.00 | 0.00 | 0.00 | 21 | 1009.7 | |
| 20260504100323 | 46 | 0.0 | 0.0 | 0.00 | 0.00 | 0.00 | 43 | 1011.4 | |
| 20260504081544 | 51 | 0.0 | 0.0 | 0.00 | 0.00 | 0.00 | 35 | 1012.0 |